Location: Newark
(31.3428°N, 34.3253°E)
Time: 04:37:32
(UTC+00:00)

Envisat - Visible Passes

Search period start: 22 January 2020 00:00
Search period end: 01 February 2020 00:00
Orbit: 764 x 766 km, 98.1° (Epoch: 21 January)

Date Brightness Start Highest point End Pass type
(mag) Time Alt. Az. Time Alt. Az. Time Alt. Az.
22 Jan 6.1 03:10:48 10° ENE 03:13:39 15° E 03:16:28 10° SE visible
22 Jan 3.6 15:56:57 10° S 16:01:57 62° W 16:06:59 10° NNW visible
23 Jan 3.4 04:11:04 10° NNE 04:16:09 71° ESE 04:21:12 10° S visible
23 Jan 6.2 17:02:14 10° WSW 17:04:30 13° W 17:06:46 10° WNW visible
24 Jan 5.3 03:34:56 10° NE 03:39:17 28° E 03:43:37 10° SSE visible
24 Jan 4.9 16:22:59 10° SSW 16:27:29 32° W 16:32:01 10° NW visible
25 Jan 6.4 03:00:52 10° ENE 03:02:15 11° E 03:03:39 10° ESE visible
25 Jan 3.2 15:45:36 10° S 15:50:40 81° WSW 15:55:46 10° NNW visible
26 Jan 4.0 03:59:52 10° NNE 04:04:51 54° E 04:09:47 10° S visible
26 Jan 5.9 16:49:51 10° SW 16:53:07 17° W 16:56:24 10° NW visible
27 Jan 5.7 03:24:04 10° NE 03:27:56 22° E 03:31:47 10° SE visible
27 Jan 4.4 16:11:23 10° S 16:16:10 42° W 16:20:58 10° NNW visible
28 Jan 3.0 15:34:20 10° SSE 15:39:23 78° ENE 15:44:28 10° N visible
29 Jan 4.5 03:48:45 10° NNE 03:53:32 41° E 03:58:17 10° SSE visible
29 Jan 5.6 16:37:50 10° SSW 16:41:45 22° W 16:45:42 10° NW visible
30 Jan 6.1 03:13:23 10° NE 03:16:34 17° E 03:19:45 10° SE visible
30 Jan 3.8 15:59:54 10° S 16:04:51 55° W 16:09:50 10° NNW visible
31 Jan 6.4 17:05:47 10° WSW 17:07:26 11° W 17:09:05 10° WNW visible
